QPF
0.01 0.00 0.01 0.02 0.02 0.01 0.00 0.00 0.01 0.01 0.01 0.01 0.01 0.01 0.01 0.01 0.02 0.03 0.06 0.06 0.04 0.04 0.04 0.04 0.04 0.05 0.05 0.04 0.04 0.04 0.05 0.06 0.07 0.06 0.05 0.04 0.05 0.05 0.08 0.07 0.05 0.03 0.04
0.00 0.00 0.00 0.01 0.02 0.03 0.01 0.01 0.01 0.01 0.01 0.01 0.01 0.01 0.01 0.01 0.02 0.03 0.06 0.09 0.06 0.04 0.04 0.04 0.05 0.05 0.05 0.03 0.03 0.03 0.03 0.05 0.06 0.09 0.08 0.06 0.06 0.07 0.13 0.09 0.05 0.04 0.05
0.00 0.00 0.00 0.00 0.01 0.03 0.02 0.01 0.01 0.02 0.01 0.01 0.01 0.01 0.01 0.02 0.02 0.02 0.03 0.14 0.12 0.06 0.05 0.05 0.05 0.06 0.04 0.02 0.02 0.03 0.04 0.06 0.07 0.09 0.09 0.06 0.06 0.08 0.08 0.08 0.07 0.04 0.04
0.00 0.00 0.00 0.00 0.01 0.02 0.02 0.02 0.02 0.02 0.02 0.01 0.01 0.01 0.01 0.03 0.02 0.01 0.02 0.09 0.15 0.09 0.06 0.06 0.05 0.06 0.05 0.04 0.04 0.04 0.05 0.07 0.10 0.08 0.08 0.09 0.09 0.08 0.06 0.06 0.06 0.04 0.03
0.00 0.00 0.00 0.00 0.01 0.01 0.02 0.02 0.02 0.02 0.02 0.02 0.01 0.01 0.01 0.02 0.01 0.01 0.02 0.03 0.07 0.07 0.05 0.04 0.05 0.04 0.04 0.05 0.05 0.05 0.05 0.06 0.09 0.08 0.07 0.08 0.09 0.11 0.07 0.06 0.06 0.04 0.03
0.00 0.00 0.00 0.01 0.01 0.01 0.01 0.01 0.01 0.01 0.01 0.02 0.02 0.02 0.02 0.01 0.01 0.02 0.02 0.03 0.04 0.03 0.03 0.03 0.05 0.04 0.03 0.03 0.04 0.04 0.05 0.06 0.06 0.07 0.08 0.07 0.06 0.08 0.05 0.05 0.05 0.04 0.03
0.00 0.01 0.01 0.01 0.02 0.01 0.00 0.01 0.01 0.01 0.01 0.02 0.03 0.02 0.01 0.01 0.01 0.02 0.02 0.03 0.03 0.02 0.03 0.04 0.05 0.05 0.04 0.04 0.04 0.05 0.08 0.05 0.03 0.04 0.08 0.09 0.07 0.08 0.06 0.04 0.04 0.03 0.03
0.01 0.01 0.00 0.01 0.01 0.01 0.01 0.01 0.01 0.01 0.01 0.02 0.02 0.02 0.01 0.01 0.01 0.02 0.03 0.02 0.03 0.03 0.03 0.05 0.07 0.07 0.06 0.05 0.07 0.10 0.08 0.05 0.04 0.06 0.10 0.08 0.08 0.11 0.10 0.06 0.03 0.03 0.03
0.01 0.01 0.00 0.00 0.00 0.01 0.01 0.01 0.00 0.01 0.01 0.01 0.02 0.02 0.02 0.02 0.02 0.02 0.03 0.02 0.03 0.03 0.05 0.06 0.08 0.08 0.10 0.13 0.15 0.11 0.07 0.06 0.05 0.09 0.10 0.06 0.07 0.09 0.09 0.07 0.04 0.03 0.03
0.01 0.01 0.00 0.00 0.00 0.01 0.01 0.01 0.01 0.01 0.01 0.00 0.01 0.01 0.02 0.02 0.02 0.02 0.03 0.03 0.03 0.04 0.06 0.09 0.12 0.17 0.18 0.15 0.12 0.10 0.09 0.07 0.06 0.08 0.08 0.06 0.07 0.08 0.07 0.05 0.03 0.03 0.03
0.02 0.01 0.00 0.00 0.00 0.01 0.01 0.01 0.01 0.01 0.01 0.01 0.01 0.01 0.02 0.01 0.02 0.02 0.02 0.03 0.04 0.05 0.05 0.06 0.07 0.08 0.08 0.08 0.08 0.09 0.08 0.06 0.06 0.07 0.06 0.06 0.09 0.08 0.06 0.04 0.03 0.03 0.03
0.01 0.01 0.01 0.00 0.01 0.01 0.01 0.01 0.01 0.01 0.01 0.01 0.01 0.01 0.02 0.02 0.02 0.02 0.03 0.05 0.06 0.07 0.07 0.05 0.04 0.04 0.03 0.03 0.04 0.05 0.05 0.04 0.05 0.06 0.05 0.05 0.06 0.06 0.06 0.04 0.04 0.05 0.05
0.01 0.01 0.01 0.01 0.02 0.02 0.02 0.01 0.01 0.01 0.01 0.02 0.02 0.02 0.02 0.02 0.03 0.03 0.03 0.05 0.06 0.08 0.08 0.07 0.06 0.04 0.03 0.02 0.03 0.05 0.05 0.04 0.04 0.05 0.06 0.07 0.05 0.04 0.04 0.03 0.04 0.06 0.07
0.01 0.01 0.02 0.03 0.03 0.04 0.03 0.01 0.02 0.02 0.01 0.02 0.02 0.02 0.03 0.03 0.04 0.04 0.04 0.06 0.06 0.07 0.06 0.04 0.04 0.04 0.02 0.03 0.06 0.08 0.06 0.04 0.04 0.04 0.05 0.05 0.05 0.04 0.04 0.03 0.02 0.03 0.06
0.03 0.04 0.05 0.05 0.05 0.03 0.02 0.01 0.01 0.01 0.01 0.02 0.02 0.03 0.04 0.05 0.04 0.04 0.06 0.07 0.06 0.07 0.07 0.06 0.03 0.03 0.04 0.04 0.04 0.04 0.04 0.04 0.04 0.03 0.03 0.04 0.05 0.04 0.04 0.04 0.03 0.03 0.05
0.07 0.10 0.09 0.07 0.06 0.04 0.02 0.03 0.02 0.01 0.01 0.01 0.02 0.02 0.03 0.05 0.06 0.08 0.07 0.07 0.07 0.05 0.04 0.06 0.05 0.04 0.04 0.04 0.04 0.04 0.03 0.04 0.03 0.02 0.02 0.03 0.05 0.04 0.04 0.04 0.04 0.04 0.06
0.03 0.09 0.12 0.11 0.08 0.06 0.05 0.04 0.03 0.03 0.04 0.03 0.03 0.02 0.04 0.04 0.05 0.08 0.08 0.07 0.08 0.06 0.04 0.05 0.06 0.05 0.03 0.03 0.03 0.03 0.03 0.04 0.03 0.02 0.02 0.03 0.03 0.03 0.03 0.04 0.04 0.04 0.04
0.02 0.02 0.06 0.08 0.06 0.05 0.04 0.05 0.05 0.05 0.06 0.06 0.04 0.03 0.02 0.02 0.04 0.06 0.07 0.06 0.07 0.08 0.08 0.07 0.05 0.04 0.04 0.03 0.03 0.04 0.05 0.04 0.03 0.02 0.03 0.03 0.03 0.02 0.03 0.04 0.04 0.03 0.03
0.01 0.01 0.02 0.04 0.03 0.03 0.05 0.04 0.05 0.06 0.08 0.06 0.05 0.03 0.03 0.03 0.04 0.05 0.06 0.07 0.07 0.08 0.09 0.07 0.05 0.04 0.03 0.02 0.03 0.05 0.05 0.04 0.03 0.04 0.05 0.04 0.03 0.02 0.02 0.02 0.03 0.03 0.04
0.01 0.01 0.01 0.02 0.03 0.04 0.05 0.05 0.05 0.04 0.03 0.03 0.03 0.03 0.02 0.03 0.04 0.04 0.05 0.09 0.09 0.08 0.07 0.07 0.06 0.05 0.03 0.02 0.04 0.05 0.05 0.05 0.05 0.06 0.06 0.08 0.05 0.02 0.02 0.02 0.03 0.04 0.04
0.02 0.02 0.02 0.02 0.01 0.03 0.05 0.08 0.06 0.04 0.02 0.01 0.01 0.01 0.01 0.01 0.02 0.02 0.04 0.06 0.07 0.07 0.07 0.06 0.06 0.05 0.04 0.04 0.05 0.04 0.05 0.05 0.05 0.07 0.05 0.06 0.04 0.02 0.02 0.03 0.04 0.03 0.02
0.02 0.02 0.03 0.02 0.01 0.01 0.01 0.01 0.03 0.04 0.02 0.01 0.01 0.01 0.01 0.01 0.01 0.02 0.03 0.05 0.06 0.06 0.06 0.04 0.04 0.04 0.04 0.06 0.05 0.05 0.05 0.04 0.03 0.03 0.02 0.02 0.02 0.02 0.02 0.03 0.03 0.02 0.03
0.02 0.02 0.02 0.03 0.01 0.01 0.01 0.01 0.02 0.03 0.04 0.03 0.02 0.02 0.03 0.01 0.01 0.01 0.03 0.05 0.04 0.05 0.05 0.04 0.03 0.03 0.04 0.06 0.06 0.05 0.04 0.03 0.01 0.01 0.02 0.02 0.02 0.02 0.02 0.03 0.02 0.02 0.02
0.03 0.03 0.03 0.03 0.02 0.02 0.02 0.02 0.02 0.02 0.03 0.02 0.01 0.02 0.02 0.02 0.01 0.02 0.04 0.07 0.07 0.05 0.04 0.04 0.04 0.04 0.05 0.06 0.07 0.07 0.05 0.03 0.02 0.01 0.02 0.02 0.03 0.03 0.03 0.03 0.02 0.03 0.03
0.05 0.04 0.04 0.04 0.04 0.03 0.03 0.02 0.02 0.03 0.02 0.02 0.02 0.03 0.04 0.04 0.03 0.03 0.04 0.06 0.07 0.06 0.04 0.04 0.05 0.05 0.04 0.06 0.07 0.08 0.07 0.05 0.04 0.02 0.02 0.01 0.02 0.03 0.03 0.03 0.02 0.03 0.03
0.06 0.05 0.05 0.05 0.05 0.05 0.05 0.05 0.05 0.05 0.05 0.05 0.05 0.04 0.05 0.06 0.06 0.05 0.05 0.07 0.06 0.04 0.04 0.04 0.05 0.04 0.03 0.04 0.06 0.07 0.07 0.05 0.04 0.04 0.03 0.02 0.02 0.01 0.03 0.04 0.03 0.03 0.03
MSLP
1009.72 1009.16 1008.69 1008.39 1008.25 1008.24 1008.29 1008.33 1008.28 1008.14 1007.90 1007.62 1007.35 1007.17 1007.11 1007.18 1007.38 1007.67 1008.01 1008.37 1008.71 1009.04 1009.36 1009.67 1009.99 1010.32 1010.65 1010.96 1011.26 1011.54 1011.80 1012.04 1012.29 1012.54 1012.81 1013.07 1013.33 1013.55 1013.75 1013.92 1014.07 1014.22 1014.39
1009.53 1009.07 1008.72 1008.51 1008.45 1008.49 1008.55 1008.56 1008.49 1008.31 1008.04 1007.75 1007.49 1007.32 1007.28 1007.37 1007.58 1007.88 1008.23 1008.59 1008.96 1009.31 1009.66 1010.01 1010.35 1010.68 1011.00 1011.29 1011.55 1011.78 1012.00 1012.23 1012.48 1012.75 1013.05 1013.35 1013.64 1013.89 1014.10 1014.26 1014.40 1014.54 1014.70
1009.23 1008.89 1008.65 1008.56 1008.59 1008.69 1008.79 1008.82 1008.74 1008.56 1008.30 1008.01 1007.77 1007.61 1007.57 1007.65 1007.84 1008.11 1008.42 1008.77 1009.13 1009.50 1009.88 1010.27 1010.65 1011.01 1011.34 1011.62 1011.86 1012.06 1012.26 1012.47 1012.71 1012.99 1013.31 1013.64 1013.95 1014.23 1014.45 1014.62 1014.75 1014.88 1015.03
1008.88 1008.65 1008.54 1008.56 1008.69 1008.87 1009.03 1009.10 1009.05 1008.90 1008.66 1008.41 1008.18 1008.03 1007.98 1008.03 1008.16 1008.37 1008.63 1008.92 1009.26 1009.63 1010.04 1010.47 1010.91 1011.32 1011.68 1011.98 1012.21 1012.40 1012.58 1012.77 1013.00 1013.28 1013.61 1013.95 1014.27 1014.56 1014.79 1014.96 1015.09 1015.22 1015.36
1008.57 1008.45 1008.44 1008.58 1008.81 1009.06 1009.28 1009.40 1009.40 1009.29 1009.10 1008.89 1008.70 1008.56 1008.50 1008.51 1008.58 1008.70 1008.87 1009.10 1009.39 1009.75 1010.18 1010.65 1011.14 1011.61 1012.02 1012.35 1012.60 1012.79 1012.95 1013.13 1013.34 1013.61 1013.93 1014.26 1014.59 1014.87 1015.09 1015.26 1015.40 1015.53 1015.68
1008.37 1008.34 1008.44 1008.66 1008.97 1009.29 1009.55 1009.72 1009.76 1009.70 1009.57 1009.41 1009.27 1009.16 1009.10 1009.07 1009.08 1009.12 1009.20 1009.35 1009.58 1009.91 1010.34 1010.84 1011.37 1011.90 1012.36 1012.73 1013.00 1013.20 1013.36 1013.53 1013.72 1013.97 1014.27 1014.58 1014.89 1015.15 1015.37 1015.53 1015.66 1015.79 1015.96
1008.34 1008.39 1008.56 1008.85 1009.21 1009.56 1009.85 1010.04 1010.11 1010.09 1010.01 1009.91 1009.83 1009.76 1009.72 1009.68 1009.65 1009.63 1009.63 1009.70 1009.87 1010.15 1010.56 1011.06 1011.62 1012.17 1012.67 1013.08 1013.38 1013.60 1013.77 1013.93 1014.11 1014.35 1014.62 1014.91 1015.18 1015.42 1015.61 1015.76 1015.88 1016.02 1016.20
1008.47 1008.58 1008.82 1009.15 1009.53 1009.89 1010.17 1010.35 1010.42 1010.43 1010.39 1010.35 1010.32 1010.32 1010.32 1010.31 1010.27 1010.21 1010.16 1010.17 1010.27 1010.49 1010.85 1011.33 1011.87 1012.43 1012.94 1013.37 1013.70 1013.94 1014.13 1014.30 1014.48 1014.70 1014.95 1015.22 1015.47 1015.68 1015.84 1015.97 1016.09 1016.23 1016.41
1008.70 1008.88 1009.16 1009.53 1009.91 1010.25 1010.49 1010.64 1010.69 1010.69 1010.68 1010.69 1010.73 1010.80 1010.87 1010.91 1010.90 1010.84 1010.77 1010.73 1010.77 1010.93 1011.23 1011.64 1012.14 1012.67 1013.16 1013.59 1013.93 1014.19 1014.40 1014.59 1014.79 1015.01 1015.26 1015.51 1015.74 1015.93 1016.08 1016.19 1016.30 1016.44 1016.63
1008.93 1009.19 1009.53 1009.92 1010.29 1010.60 1010.80 1010.89 1010.91 1010.89 1010.89 1010.94 1011.05 1011.20 1011.34 1011.45 1011.50 1011.48 1011.42 1011.35 1011.35 1011.44 1011.66 1011.99 1012.41 1012.88 1013.33 1013.73 1014.07 1014.35 1014.58 1014.80 1015.03 1015.27 1015.53 1015.78 1016.00 1016.18 1016.32 1016.43 1016.54 1016.67 1016.86
1009.08 1009.42 1009.83 1010.25 1010.62 1010.90 1011.06 1011.11 1011.08 1011.05 1011.05 1011.13 1011.29 1011.51 1011.73 1011.92 1012.04 1012.07 1012.04 1011.98 1011.95 1011.98 1012.12 1012.37 1012.70 1013.08 1013.47 1013.84 1014.16 1014.44 1014.70 1014.95 1015.20 1015.47 1015.75 1016.01 1016.24 1016.43 1016.57 1016.68 1016.79 1016.93 1017.11
1009.07 1009.50 1009.98 1010.45 1010.84 1011.11 1011.25 1011.27 1011.23 1011.18 1011.19 1011.29 1011.48 1011.75 1012.04 1012.30 1012.49 1012.59 1012.60 1012.56 1012.52 1012.52 1012.60 1012.77 1013.01 1013.31 1013.63 1013.95 1014.24 1014.52 1014.79 1015.07 1015.35 1015.65 1015.94 1016.22 1016.47 1016.67 1016.82 1016.95 1017.07 1017.21 1017.40
1008.88 1009.41 1009.96 1010.48 1010.90 1011.20 1011.34 1011.37 1011.34 1011.30 1011.31 1011.43 1011.65 1011.94 1012.27 1012.59 1012.83 1012.99 1013.05 1013.05 1013.03 1013.02 1013.07 1013.18 1013.36 1013.59 1013.85 1014.13 1014.40 1014.66 1014.94 1015.22 1015.52 1015.83 1016.13 1016.42 1016.68 1016.89 1017.06 1017.21 1017.34 1017.50 1017.69
1008.55 1009.15 1009.76 1010.33 1010.81 1011.15 1011.34 1011.41 1011.42 1011.41 1011.45 1011.58 1011.80 1012.10 1012.44 1012.77 1013.05 1013.25 1013.37 1013.42 1013.44 1013.46 1013.51 1013.61 1013.76 1013.96 1014.18 1014.42 1014.67 1014.92 1015.18 1015.46 1015.75 1016.05 1016.35 1016.63 1016.88 1017.10 1017.28 1017.44 1017.60 1017.77 1017.97
1008.12 1008.76 1009.42 1010.04 1010.56 1010.97 1011.23 1011.38 1011.46 1011.51 1011.59 1011.73 1011.95 1012.23 1012.55 1012.87 1013.16 1013.39 1013.55 1013.67 1013.75 1013.82 1013.92 1014.05 1014.21 1014.40 1014.62 1014.85 1015.08 1015.32 1015.56 1015.82 1016.08 1016.35 1016.62 1016.87 1017.10 1017.30 1017.48 1017.65 1017.83 1018.01 1018.22
1007.68 1008.33 1009.00 1009.64 1010.21 1010.68 1011.03 1011.28 1011.46 1011.58 1011.71 1011.88 1012.08 1012.33 1012.62 1012.90 1013.17 1013.42 1013.62 1013.79 1013.95 1014.11 1014.28 1014.47 1014.69 1014.92 1015.16 1015.40 1015.63 1015.86 1016.09 1016.31 1016.53 1016.75 1016.96 1017.15 1017.33 1017.50 1017.67 1017.83 1018.01 1018.20 1018.41
1007.30 1007.93 1008.57 1009.21 1009.81 1010.33 1010.78 1011.13 1011.41 1011.63 1011.82 1012.01 1012.21 1012.42 1012.65 1012.89 1013.13 1013.37 1013.61 1013.84 1014.08 1014.33 1014.59 1014.87 1015.16 1015.45 1015.74 1016.01 1016.27 1016.50 1016.71 1016.90 1017.07 1017.22 1017.36 1017.49 1017.60 1017.72 1017.84 1017.99 1018.15 1018.34 1018.54
1007.00 1007.59 1008.19 1008.80 1009.40 1009.97 1010.49 1010.94 1011.33 1011.64 1011.90 1012.12 1012.31 1012.49 1012.67 1012.87 1013.08 1013.31 1013.57 1013.86 1014.17 1014.50 1014.86 1015.23 1015.59 1015.96 1016.30 1016.62 1016.90 1017.15 1017.35 1017.52 1017.65 1017.74 1017.81 1017.86 1017.90 1017.95 1018.02 1018.12 1018.26 1018.43 1018.62
1006.78 1007.32 1007.87 1008.45 1009.04 1009.63 1010.21 1010.75 1011.23 1011.63 1011.95 1012.20 1012.40 1012.56 1012.71 1012.87 1013.06 1013.29 1013.56 1013.89 1014.26 1014.66 1015.09 1015.53 1015.96 1016.38 1016.78 1017.14 1017.46 1017.73 1017.95 1018.11 1018.21 1018.26 1018.27 1018.24 1018.21 1018.19 1018.20 1018.24 1018.34 1018.47 1018.63
1006.60 1007.11 1007.63 1008.17 1008.75 1009.36 1009.98 1010.58 1011.13 1011.60 1011.98 1012.27 1012.48 1012.64 1012.77 1012.91 1013.09 1013.33 1013.63 1013.98 1014.39 1014.83 1015.30 1015.77 1016.24 1016.70 1017.13 1017.52 1017.88 1018.18 1018.42 1018.60 1018.70 1018.72 1018.69 1018.61 1018.52 1018.43 1018.36 1018.35 1018.39 1018.48 1018.60
1006.41 1006.92 1007.43 1007.95 1008.53 1009.14 1009.79 1010.43 1011.03 1011.56 1011.99 1012.31 1012.54 1012.71 1012.85 1013.01 1013.20 1013.45 1013.77 1014.14 1014.57 1015.03 1015.50 1015.97 1016.44 1016.89 1017.32 1017.74 1018.12 1018.46 1018.73 1018.94 1019.05 1019.08 1019.03 1018.92 1018.78 1018.63 1018.51 1018.43 1018.40 1018.44 1018.51
1006.15 1006.71 1007.24 1007.78 1008.36 1008.99 1009.65 1010.32 1010.95 1011.51 1011.97 1012.32 1012.58 1012.77 1012.94 1013.12 1013.35 1013.63 1013.97 1014.37 1014.80 1015.24 1015.68 1016.12 1016.54 1016.96 1017.38 1017.79 1018.18 1018.55 1018.86 1019.11 1019.26 1019.32 1019.28 1019.16 1018.98 1018.79 1018.61 1018.47 1018.38 1018.35 1018.36
1005.78 1006.42 1007.01 1007.60 1008.21 1008.86 1009.54 1010.22 1010.86 1011.44 1011.91 1012.28 1012.56 1012.79 1013.00 1013.23 1013.50 1013.82 1014.20 1014.61 1015.03 1015.45 1015.84 1016.22 1016.58 1016.94 1017.31 1017.70 1018.09 1018.48 1018.83 1019.12 1019.32 1019.42 1019.40 1019.29 1019.11 1018.88 1018.66 1018.46 1018.31 1018.21 1018.17
1005.33 1006.06 1006.72 1007.37 1008.02 1008.71 1009.41 1010.10 1010.74 1011.32 1011.79 1012.17 1012.47 1012.73 1012.98 1013.26 1013.59 1013.96 1014.38 1014.81 1015.22 1015.61 1015.96 1016.27 1016.56 1016.86 1017.17 1017.52 1017.90 1018.30 1018.68 1019.02 1019.27 1019.41 1019.43 1019.33 1019.15 1018.91 1018.65 1018.41 1018.20 1018.04 1017.94
1004.80 1005.61 1006.35 1007.06 1007.77 1008.49 1009.21 1009.91 1010.56 1011.13 1011.60 1011.97 1012.29 1012.57 1012.86 1013.19 1013.56 1013.99 1014.45 1014.90 1015.33 1015.70 1016.01 1016.27 1016.50 1016.73 1016.99 1017.30 1017.67 1018.07 1018.47 1018.84 1019.13 1019.31 1019.37 1019.30 1019.13 1018.88 1018.61 1018.33 1018.07 1017.86 1017.70
1004.24 1005.09 1005.88 1006.64 1007.40 1008.17 1008.92 1009.63 1010.29 1010.85 1011.31 1011.69 1012.00 1012.30 1012.62 1012.98 1013.40 1013.88 1014.37 1014.86 1015.30 1015.67 1015.97 1016.19 1016.39 1016.58 1016.80 1017.08 1017.43 1017.83 1018.24 1018.63 1018.95 1019.16 1019.25 1019.21 1019.06 1018.82 1018.54 1018.25 1017.96 1017.71 1017.49
Thickness
5794 5796 5794 5793 5791 5790 5789 5787 5786 5784 5783 5782 5781 5781 5780 5779 5779 5777 5776 5775 5774 5773 5772 5770 5769 5768 5766 5765 5764 5763 5762 5761 5760 5759 5758 5757 5756 5755 5754 5753 5752 5752 5751
5800 5797 5795 5793 5792 5790 5788 5787 5785 5783 5782 5781 5780 5779 5778 5777 5777 5776 5775 5773 5772 5771 5770 5769 5767 5766 5765 5763 5762 5761 5761 5760 5759 5758 5757 5756 5755 5754 5752 5751 5750 5750 5749
5801 5798 5795 5793 5792 5790 5788 5786 5784 5782 5781 5780 5779 5778 5777 5776 5775 5774 5773 5772 5770 5769 5768 5767 5766 5765 5763 5762 5761 5760 5759 5758 5757 5756 5755 5754 5753 5752 5751 5750 5749 5748 5747
5801 5798 5796 5794 5792 5790 5787 5785 5783 5781 5780 5779 5777 5776 5776 5775 5774 5773 5772 5770 5768 5767 5766 5766 5764 5763 5762 5761 5760 5759 5758 5757 5756 5754 5752 5752 5751 5750 5749 5748 5747 5747 5746
5801 5798 5796 5794 5792 5789 5787 5785 5783 5781 5779 5778 5776 5775 5774 5773 5772 5772 5770 5769 5767 5766 5765 5764 5763 5762 5761 5760 5758 5757 5757 5755 5754 5752 5751 5750 5749 5749 5747 5747 5746 5745 5745
5800 5798 5795 5793 5791 5788 5786 5784 5782 5780 5778 5777 5775 5774 5773 5772 5771 5770 5769 5768 5766 5765 5764 5763 5762 5761 5760 5759 5757 5756 5755 5754 5752 5751 5750 5749 5748 5748 5746 5745 5745 5744 5744
5799 5797 5795 5792 5790 5787 5785 5783 5781 5779 5777 5776 5774 5772 5771 5770 5769 5768 5767 5766 5765 5764 5763 5761 5760 5759 5758 5757 5756 5755 5754 5753 5751 5750 5749 5748 5747 5746 5746 5745 5744 5743 5742
5800 5796 5794 5791 5788 5786 5784 5782 5779 5777 5776 5774 5773 5771 5769 5768 5768 5766 5765 5765 5764 5763 5761 5760 5759 5758 5757 5756 5755 5753 5753 5752 5750 5749 5748 5747 5746 5745 5744 5744 5743 5742 5742
5799 5795 5792 5789 5787 5785 5782 5780 5778 5776 5774 5772 5771 5769 5768 5767 5766 5765 5764 5763 5762 5762 5760 5759 5757 5756 5756 5755 5754 5752 5752 5750 5749 5747 5746 5745 5745 5744 5744 5743 5742 5742 5742
5795 5793 5791 5788 5786 5783 5781 5778 5776 5774 5772 5771 5769 5768 5766 5765 5764 5763 5762 5761 5761 5760 5759 5757 5756 5755 5754 5753 5752 5751 5750 5749 5747 5746 5745 5744 5744 5743 5743 5742 5741 5741 5741
5791 5790 5789 5786 5784 5781 5779 5777 5775 5772 5770 5769 5768 5766 5765 5763 5762 5761 5760 5760 5759 5758 5757 5756 5755 5754 5753 5752 5751 5750 5749 5747 5746 5745 5744 5744 5743 5742 5742 5741 5740 5740 5739
5787 5787 5787 5785 5782 5779 5778 5775 5773 5771 5769 5768 5766 5765 5763 5762 5760 5759 5759 5758 5757 5756 5755 5754 5753 5753 5752 5750 5750 5749 5747 5746 5744 5743 5743 5742 5742 5741 5741 5740 5739 5739 5738
5790 5787 5785 5783 5781 5778 5776 5773 5771 5769 5767 5766 5765 5763 5762 5760 5759 5758 5757 5756 5756 5755 5754 5753 5752 5750 5750 5749 5748 5746 5745 5744 5743 5742 5742 5741 5740 5740 5739 5739 5738 5738 5737
5789 5787 5785 5783 5779 5776 5774 5771 5769 5767 5765 5764 5763 5762 5760 5759 5757 5756 5755 5754 5754 5753 5752 5752 5750 5749 5748 5747 5746 5744 5743 5742 5742 5741 5740 5740 5740 5739 5738 5737 5737 5736 5735
5790 5788 5785 5782 5778 5775 5772 5769 5767 5765 5764 5763 5762 5760 5759 5758 5756 5755 5754 5753 5753 5752 5751 5750 5749 5747 5746 5745 5744 5743 5742 5741 5740 5739 5739 5739 5738 5738 5737 5736 5735 5735 5734
5791 5788 5786 5782 5779 5775 5771 5767 5765 5764 5762 5761 5760 5759 5758 5757 5755 5754 5752 5751 5751 5751 5750 5748 5747 5746 5745 5744 5742 5742 5741 5740 5739 5738 5738 5737 5736 5736 5735 5735 5734 5734 5732
5791 5789 5785 5781 5777 5773 5769 5766 5764 5762 5761 5759 5759 5757 5756 5755 5754 5753 5751 5750 5749 5749 5748 5747 5745 5745 5744 5742 5740 5740 5739 5738 5737 5736 5736 5735 5734 5734 5734 5733 5733 5732 5731
5791 5787 5783 5781 5776 5772 5769 5766 5763 5761 5759 5757 5756 5755 5754 5753 5752 5751 5749 5748 5748 5747 5746 5744 5743 5741 5740 5738 5737 5737 5737 5737 5736 5735 5734 5733 5733 5732 5731 5731 5730 5730 5729
5791 5786 5781 5779 5775 5772 5768 5765 5761 5759 5757 5756 5754 5753 5752 5751 5750 5749 5748 5747 5746 5745 5744 5743 5740 5739 5737 5735 5735 5735 5735 5734 5734 5734 5732 5732 5731 5730 5729 5729 5728 5727 5727
5789 5785 5780 5777 5773 5769 5764 5760 5757 5754 5753 5753 5751 5750 5749 5748 5748 5747 5746 5745 5744 5742 5741 5740 5738 5736 5735 5734 5734 5732 5732 5732 5732 5731 5731 5730 5730 5729 5728 5727 5726 5725 5724
5784 5781 5777 5772 5769 5765 5760 5755 5751 5748 5749 5748 5749 5748 5748 5746 5745 5744 5743 5742 5741 5739 5738 5737 5735 5733 5731 5731 5728 5725 5726 5728 5728 5729 5728 5727 5727 5726 5726 5725 5724 5722 5722
5779 5777 5773 5769 5766 5763 5759 5756 5752 5749 5747 5746 5746 5745 5745 5744 5743 5742 5741 5739 5738 5737 5735 5734 5732 5729 5728 5728 5723 5718 5714 5717 5722 5725 5725 5724 5724 5724 5723 5722 5721 5720 5719
5775 5772 5771 5767 5763 5760 5757 5753 5750 5745 5743 5740 5740 5740 5741 5741 5741 5740 5738 5737 5736 5735 5732 5731 5730 5727 5723 5724 5724 5718 5710 5706 5711 5717 5719 5720 5720 5719 5719 5719 5719 5718 5717
5772 5770 5767 5764 5760 5757 5754 5750 5746 5741 5737 5736 5736 5737 5737 5738 5737 5737 5736 5734 5733 5732 5730 5729 5728 5726 5723 5719 5720 5720 5717 5714 5707 5706 5711 5714 5715 5715 5716 5716 5716 5715 5714
5768 5766 5764 5760 5756 5753 5751 5747 5743 5740 5737 5735 5734 5733 5732 5733 5733 5733 5732 5730 5729 5728 5727 5726 5725 5724 5722 5719 5717 5716 5714 5712 5710 5704 5702 5706 5709 5711 5713 5713 5713 5712 5712
5763 5760 5758 5754 5750 5750 5747 5744 5740 5737 5734 5731 5729 5727 5727 5727 5728 5728 5728 5726 5725 5725 5724 5724 5723 5722 5720 5719 5717 5715 5712 5709 5706 5704 5700 5700 5701 5705 5708 5709 5709 5709 5709